TimeCEST,TemperatureF,Dew PointF,Humidity,Sea Level PressureIn,VisibilityMPH,Wind Direction,Wind SpeedMPH,Gust SpeedMPH,PrecipitationIn,Events,Conditions,WindDirDegrees,DateUTC
12:00 AM,42.8,42.8,100,30.01,-9999.0,Calm,Calm,-,N/A,,Unknown,0,2012-10-24 22:00:00
12:30 AM,42.8,42.8,100,30.01,-9999.0,Calm,Calm,-,N/A,,Unknown,0,2012-10-24 22:30:00
1:00 AM,42.8,42.8,100,30.01,1.3,Variable,1.2,-,N/A,,Unknown,0,2012-10-24 23:00:00
1:30 AM,42.8,42.8,100,30.01,1.5,SSE,2.3,-,N/A,,Unknown,160,2012-10-24 23:30:00
2:00 AM,41.0,41.0,100,30.01,1.5,Calm,Calm,-,N/A,,Unknown,0,2012-10-25 00:00:00
2:30 AM,41.0,41.0,100,30.01,-9999.0,Variable,3.5,-,N/A,,Unknown,0,2012-10-25 00:30:00
3:00 AM,41.0,41.0,100,30.01,-9999.0,SE,2.3,-,N/A,,Unknown,140,2012-10-25 01:00:00
3:30 AM,41.0,41.0,100,30.01,-9999.0,ESE,3.5,-,N/A,,Unknown,120,2012-10-25 01:30:00
4:00 AM,41.0,41.0,100,30.01,1.9,Variable,2.3,-,N/A,,Unknown,0,2012-10-25 02:00:00
4:30 AM,41.0,41.0,100,29.98,1.3,ESE,2.3,-,N/A,,Unknown,110,2012-10-25 02:30:00
5:00 AM,41.0,41.0,100,29.98,0.9,East,2.3,-,N/A,,Unknown,90,2012-10-25 03:00:00
5:30 AM,41.0,41.0,100,29.98,1.7,Variable,2.3,-,N/A,,Unknown,0,2012-10-25 03:30:00
6:00 AM,41.0,41.0,100,29.98,-9999.0,East,3.5,-,N/A,,Unknown,80,2012-10-25 04:00:00
6:30 AM,39.2,39.2,100,29.98,1.6,Variable,2.3,-,N/A,,Unknown,0,2012-10-25 04:30:00
7:00 AM,39.2,39.2,100,29.95,1.6,SSE,1.2,-,N/A,,Unknown,150,2012-10-25 05:00:00
7:30 AM,41.0,41.0,100,29.98,1.8,Variable,2.3,-,N/A,,Unknown,0,2012-10-25 05:30:00
8:00 AM,41.0,39.2,93,29.95,-9999.0,East,5.8,-,N/A,,Unknown,80,2012-10-25 06:00:00
8:30 AM,41.0,41.0,100,29.98,-9999.0,East,3.5,-,N/A,,Unknown,90,2012-10-25 06:30:00
9:00 AM,42.8,42.8,100,29.98,-9999.0,ESE,3.5,-,N/A,,Unknown,110,2012-10-25 07:00:00
9:30 AM,44.6,44.6,100,29.98,3.1,ESE,6.9,-,N/A,,Unknown,110,2012-10-25 07:30:00
10:00 AM,46.4,44.6,93,29.98,4.3,East,5.8,-,N/A,,Unknown,100,2012-10-25 08:00:00
10:30 AM,48.2,46.4,93,29.98,6.2,SE,6.9,-,N/A,,Unknown,140,2012-10-25 08:30:00
11:00 AM,50.0,44.6,82,29.98,6.2,East,5.8,-,N/A,,Unknown,100,2012-10-25 09:00:00
11:30 AM,51.8,46.4,82,29.98,6.2,ESE,6.9,-,N/A,,Unknown,110,2012-10-25 09:30:00
12:00 PM,53.6,48.2,82,29.98,6.2,East,6.9,-,N/A,,Unknown,90,2012-10-25 10:00:00
12:30 PM,55.4,48.2,77,29.95,6.2,ENE,9.2,-,N/A,,Unknown,60,2012-10-25 10:30:00
1:00 PM,57.2,50.0,77,29.95,6.2,East,6.9,-,N/A,,Unknown,90,2012-10-25 11:00:00
1:30 PM,59.0,51.8,77,29.92,6.2,ESE,5.8,-,N/A,,Unknown,110,2012-10-25 11:30:00
2:00 PM,60.8,51.8,72,29.92,6.2,East,4.6,-,N/A,,Unknown,80,2012-10-25 12:00:00
2:30 PM,60.8,51.8,72,29.92,6.2,East,5.8,-,N/A,,Unknown,90,2012-10-25 12:30:00
3:00 PM,62.6,53.6,72,29.89,6.2,East,6.9,-,N/A,,Unknown,100,2012-10-25 13:00:00
3:30 PM,62.6,53.6,72,29.89,6.2,East,5.8,-,N/A,,Unknown,80,2012-10-25 13:30:00
4:00 PM,64.4,53.6,68,29.89,6.2,East,5.8,-,N/A,,Unknown,100,2012-10-25 14:00:00
4:30 PM,64.4,51.8,64,29.86,6.2,ENE,6.9,-,N/A,,Unknown,70,2012-10-25 14:30:00
5:00 PM,62.6,51.8,68,29.86,6.2,ENE,9.2,-,N/A,,Unknown,60,2012-10-25 15:00:00
5:30 PM,60.8,51.8,72,29.86,6.2,East,9.2,-,N/A,,Unknown,80,2012-10-25 15:30:00
6:00 PM,59.0,51.8,77,29.86,6.2,East,8.1,-,N/A,,Unknown,90,2012-10-25 16:00:00
6:30 PM,57.2,50.0,77,29.86,6.2,ENE,6.9,-,N/A,,Unknown,70,2012-10-25 16:30:00
7:00 PM,57.2,48.2,72,29.86,6.2,East,8.1,-,N/A,,Unknown,80,2012-10-25 17:00:00
7:30 PM,55.4,48.2,77,29.86,5.0,ENE,8.1,-,N/A,,Unknown,70,2012-10-25 17:30:00
8:00 PM,53.6,48.2,82,29.86,5.0,East,8.1,-,N/A,,Unknown,90,2012-10-25 18:00:00
8:30 PM,51.8,46.4,82,29.86,4.3,East,5.8,-,N/A,,Unknown,100,2012-10-25 18:30:00
9:00 PM,50.0,46.4,87,29.86,4.3,East,5.8,-,N/A,,Unknown,100,2012-10-25 19:00:00
9:30 PM,51.8,48.2,88,29.86,3.7,East,5.8,-,N/A,,Unknown,80,2012-10-25 19:30:00
10:00 PM,50.0,46.4,87,29.86,3.7,East,6.9,-,N/A,,Unknown,90,2012-10-25 20:00:00
10:30 PM,50.0,46.4,87,29.86,3.1,East,6.9,-,N/A,,Unknown,90,2012-10-25 20:30:00
11:00 PM,50.0,46.4,87,29.83,3.1,ENE,8.1,-,N/A,,Unknown,70,2012-10-25 21:00:00
11:30 PM,50.0,46.4,87,29.83,4.3,East,6.9,-,N/A,,Unknown,90,2012-10-25 21:30:00